| time (UTC) | temp F | wind direction | speed MPH | gust MPH | rain 1hr in | rain 24hr in | rain mn in | humidity % | barometer mb |
| 20260510153052 | 60 | 251 | 8.0 | 14.0 | 0.00 | 0.30 | 0.00 | 72 | 1010.3 |
| 20260510152553 | 60 | 237 | 4.0 | 12.0 | 0.00 | 0.30 | 0.00 | 73 | 1010.3 |
| 20260510152028 | 60 | 238 | 4.0 | 12.0 | 0.00 | 0.30 | 0.00 | 73 | 1010.2 |
| 20260510151525 | 60 | 253 | 6.0 | 11.0 | 0.00 | 0.30 | 0.00 | 74 | 1010.2 |
| 20260510151049 | 60 | 210 | 6.0 | 10.0 | 0.00 | 0.30 | 0.00 | 74 | 1010.1 |
| 20260510150616 | 59 | 207 | 5.0 | 13.0 | 0.00 | 0.30 | 0.00 | 75 | 1010.2 |
| 20260510150106 | 59 | 272 | 8.0 | 13.0 | 0.00 | 0.30 | 0.00 | 74 | 1010.2 |
| 20260510145540 | 59 | 226 | 8.0 | 15.0 | 0.00 | 0.34 | 0.00 | 74 | 1010.0 |
| 20260510145031 | 59 | 241 | 6.0 | 14.0 | 0.00 | 0.34 | 0.00 | 75 | 1010.0 |
| 20260510144556 | 59 | 170 | 5.0 | 15.0 | 0.00 | 0.34 | 0.00 | 75 | 1009.9 |
| 20260510144032 | 59 | 172 | 6.0 | 12.0 | 0.00 | 0.34 | 0.00 | 76 | 1010.0 |
| 20260510143528 | 58 | 207 | 4.0 | 14.0 | 0.00 | 0.34 | 0.00 | 76 | 1009.9 |
| 20260510143058 | 58 | 233 | 7.0 | 14.0 | 0.00 | 0.34 | 0.00 | 76 | 1009.9 |
| 20260510142532 | 58 | 256 | 7.0 | 14.0 | 0.00 | 0.34 | 0.00 | 77 | 1009.9 |
| 20260510142027 | 58 | 256 | 5.0 | 13.0 | 0.00 | 0.34 | 0.00 | 81 | 1009.8 |
| 20260510141616 | 57 | 203 | 9.0 | 14.0 | 0.00 | 0.34 | 0.00 | 77 | 1010.0 |
| 20260510141055 | 57 | 204 | 5.0 | 14.0 | 0.00 | 0.34 | 0.00 | 78 | 1009.9 |
| 20260510140530 | 57 | 200 | 7.0 | 14.0 | 0.00 | 0.34 | 0.00 | 79 | 1009.8 |
| 20260510140026 | 57 | 201 | 6.0 | 14.0 | 0.00 | 0.34 | 0.00 | 80 | 1009.8 |
| 20260510135547 | 56 | 191 | 9.0 | 14.0 | 0.00 | 0.35 | 0.00 | 79 | 1010.0 |
| 20260510135024 | 56 | 22 | 2.0 | 10.0 | 0.00 | 0.35 | 0.00 | 82 | 1010.0 |
| 20260510134530 | 56 | 163 | 6.0 | 10.0 | 0.00 | 0.35 | 0.00 | 82 | 1010.0 |
| 20260510134055 | 56 | 238 | 4.0 | 11.0 | 0.00 | 0.35 | 0.00 | 82 | 1010.0 |
| 20260510133529 | 56 | 125 | 4.0 | 10.0 | 0.00 | 0.35 | 0.00 | 83 | 1009.9 |
| 20260510133101 | 55 | 229 | 5.0 | 10.0 | 0.00 | 0.35 | 0.00 | 85 | 1010.0 |
| 20260510132533 | 55 | 210 | 4.0 | 13.0 | 0.00 | 0.35 | 0.00 | 88 | 1009.9 |
| 20260510132027 | 54 | 241 | 6.0 | 13.0 | 0.00 | 0.35 | 0.00 | 87 | 1010.0 |
| 20260510131617 | 54 | 222 | 6.0 | 11.0 | 0.00 | 0.35 | 0.00 | 87 | 1010.0 |
| 20260510131032 | 54 | 183 | 7.0 | 12.0 | 0.00 | 0.35 | 0.00 | 89 | 1009.9 |
| 20260510130527 | 54 | 222 | 4.0 | 10.0 | 0.00 | 0.35 | 0.00 | 92 | 1009.9 |
| 20260510130147 | 53 | 183 | 3.0 | 6.0 | 0.00 | 0.35 | 0.00 | 95 | 1009.7 |
| 20260510125538 | 52 | 171 | 3.0 | 6.0 | 0.00 | 0.38 | 0.00 | 98 | 1009.9 |
| 20260510125108 | 51 | 179 | 2.0 | 4.0 | 0.00 | 0.38 | 0.00 | 99 | 1009.7 |
| 20260510124612 | 50 | 159 | 1.0 | 5.0 | 0.00 | 0.38 | 0.00 | 99 | 1009.7 |
| 20260510124054 | 49 | 148 | 1.0 | 5.0 | 0.00 | 0.38 | 0.00 | 99 | 1009.6 |
| 20260510123550 | 49 | 162 | 1.0 | 2.0 | 0.00 | 0.38 | 0.00 | 99 | 1009.7 |
| 20260510123054 | 49 | 160 | 1.0 | 3.0 | 0.00 | 0.38 | 0.00 | 99 | 1009.7 |
| 20260510122547 | 48 | 179 | 1.0 | 3.0 | 0.00 | 0.38 | 0.00 | 99 | 1009.6 |
| 20260510122050 | 48 | 199 | 1.0 | 4.0 | 0.00 | 0.38 | 0.00 | 99 | 1009.6 |
| 20260510121545 | 48 | 187 | 2.0 | 4.0 | 0.00 | 0.38 | 0.00 | 99 | 1009.6 |
| 20260510121041 | 48 | 163 | 1.0 | 4.0 | 0.00 | 0.38 | 0.00 | 99 | 1009.6 |
| 20260510120606 | 48 | 208 | 1.0 | 5.0 | 0.00 | 0.38 | 0.00 | 99 | 1009.6 |
| 20260510120043 | 48 | 244 | 1.0 | 5.0 | 0.00 | 0.38 | 0.00 | 99 | 1009.7 |
| 20260510115536 | 47 | 186 | 3.0 | 7.0 | 0.00 | 0.40 | 0.00 | 99 | 1009.6 |
| 20260510115033 | 47 | 208 | 4.0 | 7.0 | 0.00 | 0.40 | 0.00 | 99 | 1009.7 |
| 20260510114528 | 47 | 187 | 1.0 | 5.0 | 0.00 | 0.40 | 0.00 | 99 | 1009.6 |
| 20260510114119 | 47 | 201 | 2.0 | 5.0 | 0.00 | 0.40 | 0.00 | 99 | 1009.7 |
| 20260510113533 | 47 | 176 | 2.0 | 5.0 | 0.00 | 0.40 | 0.00 | 99 | 1009.7 |
| 20260510113031 | 47 | 187 | 1.0 | 5.0 | 0.00 | 0.40 | 0.00 | 99 | 1009.7 |
| 20260510112554 | 47 | 217 | 3.0 | 5.0 | 0.00 | 0.40 | 0.00 | 99 | 1009.7 |
| 20260510112025 | 47 | 161 | 1.0 | 5.0 | 0.00 | 0.40 | 0.00 | 99 | 1009.7 |
| 20260510111551 | 47 | 253 | 2.0 | 5.0 | 0.00 | 0.40 | 0.00 | 99 | 1009.6 |
| 20260510111117 | 47 | 183 | 3.0 | 5.0 | 0.00 | 0.40 | 0.00 | 99 | 1009.6 |
| 20260510110532 | 47 | 189 | 2.0 | 6.0 | 0.00 | 0.40 | 0.00 | 99 | 1009.6 |
| 20260510110030 | 47 | 148 | 2.0 | 4.0 | 0.00 | 0.40 | 0.00 | 99 | 1009.5 |
| 20260510105550 | 47 | 166 | 2.0 | 4.0 | 0.00 | 0.49 | 0.00 | 99 | 1009.4 |
| 20260510105058 | 47 | 166 | 2.0 | 5.0 | 0.00 | 0.49 | 0.00 | 99 | 1009.3 |
| 20260510104533 | 47 | 164 | 3.0 | 6.0 | 0.00 | 0.49 | 0.00 | 99 | 1009.1 |
| 20260510104138 | 47 | 185 | 3.0 | 6.0 | 0.00 | 0.49 | 0.00 | 99 | 1009.0 |
| 20260510103605 | 47 | 133 | 1.0 | 7.0 | 0.00 | 0.49 | 0.00 | 99 | 1009.0 |
| 20260510103041 | 47 | 170 | 4.0 | 7.0 | 0.00 | 0.49 | 0.00 | 99 | 1009.0 |
| 20260510102609 | 47 | 179 | 2.0 | 5.0 | 0.00 | 0.49 | 0.00 | 99 | 1008.9 |
| 20260510102043 | 47 | 191 | 3.0 | 5.0 | 0.00 | 0.49 | 0.00 | 98 | 1008.6 |
| 20260510101650 | 47 | 169 | 2.0 | 5.0 | 0.00 | 0.49 | 0.00 | 98 | 1008.9 |
| 20260510101044 | 47 | 196 | 2.0 | 5.0 | 0.00 | 0.49 | 0.00 | 98 | 1008.7 |
| 20260510100633 | 47 | 172 | 2.0 | 5.0 | 0.00 | 0.49 | 0.00 | 98 | 1008.7 |
| 20260510100050 | 47 | 196 | 2.0 | 7.0 | 0.00 | 0.49 | 0.00 | 98 | 1008.7 |
| 20260510095544 | 47 | 198 | 3.0 | 7.0 | 0.00 | 0.54 | 0.00 | 98 | 1008.7 |
| 20260510095041 | 47 | 195 | 3.0 | 5.0 | 0.00 | 0.54 | 0.00 | 99 | 1008.5 |
| 20260510094611 | 47 | 195 | 1.0 | 4.0 | 0.00 | 0.54 | 0.00 | 99 | 1008.3 |
| 20260510094025 | 47 | 187 | 2.0 | 4.0 | 0.00 | 0.54 | 0.00 | 99 | 1008.1 |
| 20260510093609 | 47 | 143 | 2.0 | 5.0 | 0.00 | 0.54 | 0.00 | 98 | 1008.2 |
| 20260510093052 | 47 | 195 | 1.0 | 5.0 | 0.00 | 0.54 | 0.00 | 98 | 1008.2 |
| 20260510092639 | 47 | 204 | 2.0 | 5.0 | 0.00 | 0.54 | 0.00 | 98 | 1008.1 |
| 20260510092032 | 47 | 131 | 3.0 | 8.0 | 0.00 | 0.54 | 0.00 | 98 | 1007.9 |
| 20260510091529 | 47 | 166 | 5.0 | 8.0 | 0.00 | 0.54 | 0.00 | 98 | 1007.7 |
| 20260510091058 | 47 | 160 | 3.0 | 8.0 | 0.00 | 0.54 | 0.00 | 98 | 1007.9 |
| 20260510090532 | 47 | 174 | 2.0 | 7.0 | 0.00 | 0.54 | 0.00 | 98 | 1008.0 |
| 20260510090059 | 47 | 233 | 2.0 | 6.0 | 0.00 | 0.54 | 0.00 | 98 | 1008.0 |
| 20260510085533 | 47 | 162 | 2.0 | 6.0 | 0.00 | 0.54 | 0.00 | 98 | 1007.8 |
| 20260510085153 | 47 | 187 | 3.0 | 7.0 | 0.00 | 0.54 | 0.00 | 98 | 1007.9 |
| 20260510084546 | 47 | 188 | 3.0 | 7.0 | 0.00 | 0.54 | 0.00 | 98 | 1008.0 |
| 20260510084042 | 47 | 164 | 3.0 | 7.0 | 0.00 | 0.54 | 0.00 | 98 | 1008.0 |
| 20260510083539 | 47 | 187 | 2.0 | 5.0 | 0.00 | 0.54 | 0.00 | 98 | 1008.0 |
| 20260510083036 | 47 | 259 | 2.0 | 9.0 | 0.00 | 0.54 | 0.00 | 98 | 1008.3 |
| 20260510082529 | 47 | 224 | 4.0 | 9.0 | 0.00 | 0.54 | 0.00 | 98 | 1008.2 |
| 20260510082025 | 47 | 239 | 5.0 | 8.0 | 0.00 | 0.54 | 0.00 | 98 | 1008.4 |
| 20260510081546 | 47 | 213 | 3.0 | 8.0 | 0.00 | 0.54 | 0.00 | 98 | 1008.5 |
| 20260510081042 | 47 | 222 | 3.0 | 7.0 | 0.00 | 0.54 | 0.00 | 99 | 1008.4 |
| 20260510080610 | 47 | 212 | 3.0 | 5.0 | 0.00 | 0.54 | 0.00 | 99 | 1008.5 |
| 20260510080059 | 47 | 219 | 3.0 | 7.0 | 0.00 | 0.54 | 0.00 | 99 | 1008.6 |
| 20260510075607 | 47 | 208 | 4.0 | 6.0 | 0.00 | 0.54 | 0.00 | 99 | 1008.6 |
| 20260510075042 | 47 | 222 | 3.0 | 8.0 | 0.00 | 0.54 | 0.00 | 98 | 1008.6 |
| 20260510074540 | 47 | 222 | 3.0 | 8.0 | 0.00 | 0.54 | 0.00 | 98 | 1008.6 |
| 20260510074036 | 47 | 236 | 4.0 | 9.0 | 0.00 | 0.54 | 0.00 | 98 | 1008.6 |
| 20260510073532 | 46 | 226 | 3.0 | 7.0 | 0.00 | 0.54 | 0.00 | 98 | 1008.5 |
| 20260510073101 | 46 | 225 | 3.0 | 7.0 | 0.00 | 0.54 | 0.00 | 98 | 1008.6 |
| 20260510072534 | 46 | 231 | 2.0 | 7.0 | 0.00 | 0.54 | 0.00 | 98 | 1008.4 |
| 20260510072030 | 46 | 251 | 4.0 | 7.0 | 0.00 | 0.54 | 0.00 | 98 | 1008.4 |
| 20260510071527 | 46 | 239 | 3.0 | 7.0 | 0.00 | 0.54 | 0.00 | 98 | 1008.3 |
| 20260510071052 | 46 | 238 | 3.0 | 7.0 | 0.00 | 0.54 | 0.00 | 98 | 1008.4 |
| 20260510070549 | 46 | 246 | 2.0 | 6.0 | 0.00 | 0.54 | 0.00 | 98 | 1008.3 |
| 20260510070053 | 46 | 219 | 2.0 | 6.0 | 0.00 | 0.54 | 0.00 | 98 | 1008.2 |
| 20260510065619 | 46 | 247 | 3.0 | 6.0 | 0.00 | 0.54 | 0.00 | 98 | 1008.1 |
| 20260510065106 | 46 | 191 | 2.0 | 5.0 | 0.00 | 0.54 | 0.00 | 98 | 1007.9 |
| 20260510064541 | 46 | 190 | 2.0 | 5.0 | 0.00 | 0.54 | 0.00 | 98 | 1008.1 |
| 20260510064111 | 46 | 214 | 3.0 | 7.0 | 0.00 | 0.54 | 0.00 | 98 | 1008.0 |
| 20260510063553 | 46 | 226 | 1.0 | 7.0 | 0.00 | 0.54 | 0.00 | 98 | 1008.1 |
| 20260510063029 | 46 | 193 | 2.0 | 7.0 | 0.00 | 0.54 | 0.00 | 98 | 1007.9 |
| 20260510062618 | 46 | 224 | 4.0 | 7.0 | 0.00 | 0.54 | 0.00 | 98 | 1008.0 |
| 20260510062031 | 46 | 210 | 2.0 | 5.0 | 0.00 | 0.54 | 0.00 | 98 | 1008.2 |
| 20260510061528 | 46 | 219 | 3.0 | 7.0 | 0.00 | 0.54 | 0.00 | 98 | 1008.1 |
| 20260510061048 | 46 | 225 | 3.0 | 7.0 | 0.00 | 0.54 | 0.00 | 98 | 1008.1 |
| 20260510060550 | 46 | 258 | 2.0 | 7.0 | 0.00 | 0.54 | 0.00 | 98 | 1008.1 |
| 20260510060101 | 47 | 216 | 4.0 | 7.0 | 0.00 | 0.54 | 0.00 | 98 | 1008.2 |
| 20260510055534 | 47 | 195 | 3.0 | 7.0 | 0.00 | 0.54 | 0.00 | 98 | 1008.2 |
| 20260510055103 | 47 | 235 | 4.0 | 8.0 | 0.00 | 0.54 | 0.00 | 98 | 1008.3 |
| 20260510054612 | 47 | 146 | 3.0 | 6.0 | 0.00 | 0.54 | 0.00 | 98 | 1008.4 |
| 20260510054059 | 47 | 206 | 3.0 | 9.0 | 0.00 | 0.54 | 0.00 | 98 | 1008.5 |
| 20260510053534 | 47 | 224 | 3.0 | 10.0 | 0.00 | 0.54 | 0.00 | 98 | 1008.5 |
| 20260510053100 | 47 | 152 | 5.0 | 10.0 | 0.00 | 0.54 | 0.00 | 98 | 1008.5 |
| 20260510052605 | 47 | 190 | 3.0 | 8.0 | 0.00 | 0.54 | 0.00 | 98 | 1008.3 |
| 20260510052038 | 47 | 218 | 5.0 | 9.0 | 0.00 | 0.54 | 0.00 | 98 | 1008.4 |
| 20260510051535 | 47 | 149 | 3.0 | 9.0 | 0.00 | 0.54 | 0.00 | 98 | 1008.4 |
| 20260510051030 | 47 | 153 | 5.0 | 7.0 | 0.00 | 0.54 | 0.00 | 98 | 1008.5 |
| 20260510050524 | 47 | 222 | 3.0 | 7.0 | 0.00 | 0.54 | 0.00 | 98 | 1008.4 |
| 20260510050050 | 47 | 189 | 2.0 | 7.0 | 0.00 | 0.54 | 0.00 | 98 | 1008.4 |
| 20260510045613 | 47 | 221 | 4.0 | 10.0 | 0.00 | 0.54 | 0.00 | 98 | 1008.5 |
| 20260510045117 | 47 | 172 | 3.0 | 10.0 | 0.00 | 0.54 | 0.00 | 98 | 1008.5 |
| 20260510044603 | 47 | 186 | 5.0 | 9.0 | 0.00 | 0.54 | 0.00 | 98 | 1008.5 |
| 20260510044132 | 47 | 189 | 3.0 | 8.0 | 0.00 | 0.54 | 0.00 | 98 | 1008.4 |
| 20260510043548 | 47 | 174 | 3.0 | 7.0 | 0.00 | 0.54 | 0.00 | 98 | 1008.3 |
| 20260510043146 | 47 | 164 | 1.0 | 5.0 | 0.00 | 0.54 | 0.00 | 98 | 1008.3 |
| 20260510042537 | 47 | 153 | 2.0 | 5.0 | 0.00 | 0.54 | 0.00 | 98 | 1008.4 |
| 20260510042104 | 47 | 168 | 3.0 | 4.0 | 0.00 | 0.54 | 0.00 | 98 | 1008.4 |
| 20260510041539 | 47 | 196 | 2.0 | 4.0 | 0.00 | 0.54 | 0.00 | 98 | 1008.5 |
| 20260510041034 | 47 | 167 | 2.0 | 5.0 | 0.00 | 0.54 | 0.00 | 98 | 1008.4 |
| 20260510040531 | 47 | 158 | 1.0 | 4.0 | 0.00 | 0.54 | 0.00 | 98 | 1008.5 |
| 20260510040029 | 47 | 158 | 3.0 | 4.0 | 0.00 | 0.54 | 0.00 | 98 | 1008.3 |
| 20260510035638 | 47 | 139 | 2.0 | 5.0 | 0.00 | 0.54 | 0.00 | 98 | 1008.2 |
| 20260510035030 | 47 | 125 | 3.0 | 4.0 | 0.00 | 0.54 | 0.00 | 98 | 1008.2 |
| 20260510034525 | 47 | 143 | 2.0 | 6.0 | 0.00 | 0.54 | 0.00 | 98 | 1008.3 |
| 20260510034111 | 47 | 146 | 3.0 | 6.0 | 0.00 | 0.54 | 0.00 | 98 | 1008.3 |
| 20260510033547 | 47 | 158 | 2.0 | 6.0 | 0.00 | 0.54 | 0.00 | 98 | 1008.5 |
| 20260510033045 | 47 | 149 | 3.0 | 6.0 | 0.00 | 0.54 | 0.00 | 98 | 1008.5 |
| 20260510032541 | 47 | 170 | 3.0 | 6.0 | 0.00 | 0.54 | 0.00 | 98 | 1008.5 |
| 20260510032113 | 47 | 142 | 3.0 | 6.0 | 0.00 | 0.54 | 0.00 | 98 | 1008.4 |
| 20260510031554 | 47 | 130 | 3.0 | 6.0 | 0.00 | 0.54 | 0.00 | 98 | 1008.4 |
| 20260510031030 | 47 | 158 | 2.0 | 6.0 | 0.00 | 0.54 | 0.00 | 98 | 1008.4 |
| 20260510030559 | 47 | 155 | 2.0 | 6.0 | 0.00 | 0.54 | 0.00 | 98 | 1008.5 |
| 20260510030035 | 47 | 147 | 3.0 | 6.0 | 0.00 | 0.54 | 0.00 | 98 | 1008.4 |
| 20260510025525 | 47 | 132 | 3.0 | 5.0 | 0.00 | 0.54 | 0.00 | 98 | 1008.4 |
| 20260510025050 | 47 | 145 | 3.0 | 7.0 | 0.00 | 0.54 | 0.00 | 98 | 1008.5 |
| 20260510024546 | 47 | 160 | 3.0 | 8.0 | 0.00 | 0.54 | 0.00 | 98 | 1008.6 |
| 20260510024043 | 47 | 126 | 3.0 | 6.0 | 0.00 | 0.54 | 0.00 | 98 | 1008.5 |
| 20260510023540 | 47 | 143 | 3.0 | 6.0 | 0.00 | 0.54 | 0.00 | 98 | 1008.5 |
| 20260510022531 | 47 | 148 | 3.0 | 5.0 | 0.00 | 0.54 | 0.00 | 98 | 1008.6 |
| 20260510022100 | 47 | 165 | 3.0 | 6.0 | 0.00 | 0.54 | 0.00 | 98 | 1008.5 |
| 20260510021534 | 47 | 171 | 3.0 | 7.0 | 0.00 | 0.54 | 0.00 | 97 | 1008.5 |
| 20260510021104 | 47 | 139 | 3.0 | 7.0 | 0.00 | 0.54 | 0.00 | 97 | 1008.5 |
| 20260510020536 | 47 | 141 | 4.0 | 8.0 | 0.00 | 0.54 | 0.00 | 97 | 1008.4 |
| 20260510020032 | 47 | 127 | 4.0 | 8.0 | 0.00 | 0.54 | 0.00 | 97 | 1008.3 |
| 20260510015528 | 47 | 123 | 3.0 | 9.0 | 0.00 | 0.54 | 0.00 | 97 | 1008.4 |
| 20260510015051 | 47 | 125 | 3.0 | 9.0 | 0.00 | 0.54 | 0.00 | 97 | 1008.6 |
| 20260510014547 | 47 | 154 | 2.0 | 8.0 | 0.00 | 0.54 | 0.00 | 97 | 1008.7 |
| 20260510014051 | 47 | 152 | 5.0 | 8.0 | 0.00 | 0.54 | 0.00 | 97 | 1008.6 |
| 20260510013548 | 47 | 133 | 5.0 | 8.0 | 0.00 | 0.54 | 0.00 | 97 | 1008.7 |
| 20260510013058 | 47 | 138 | 4.0 | 8.0 | 0.00 | 0.54 | 0.00 | 97 | 1008.7 |
| 20260510012620 | 47 | 145 | 5.0 | 7.0 | 0.00 | 0.54 | 0.00 | 97 | 1009.0 |
| 20260510012034 | 47 | 154 | 4.0 | 8.0 | 0.00 | 0.54 | 0.00 | 97 | 1008.9 |
| 20260510011602 | 47 | 180 | 3.0 | 8.0 | 0.00 | 0.54 | 0.00 | 97 | 1008.8 |
| 20260510011036 | 47 | 143 | 4.0 | 8.0 | 0.00 | 0.54 | 0.00 | 97 | 1008.7 |
| 20260510010625 | 47 | 158 | 3.0 | 7.0 | 0.00 | 0.54 | 0.00 | 97 | 1008.6 |
| 20260510010039 | 47 | 125 | 3.0 | 7.0 | 0.00 | 0.54 | 0.00 | 97 | 1008.5 |
| 20260510005533 | 47 | 137 | 2.0 | 3.0 | 0.00 | 0.54 | 0.00 | 97 | 1008.5 |
| 20260510005028 | 47 | 154 | 1.0 | 7.0 | 0.00 | 0.54 | 0.00 | 97 | 1008.3 |
| 20260510004614 | 47 | 148 | 3.0 | 7.0 | 0.00 | 0.54 | 0.00 | 97 | 1008.1 |
| 20260510004101 | 47 | 122 | 1.0 | 7.0 | 0.00 | 0.54 | 0.00 | 97 | 1008.1 |
| 20260510003537 | 47 | 186 | 3.0 | 8.0 | 0.00 | 0.54 | 0.00 | 97 | 1007.9 |
| 20260510003033 | 47 | 131 | 5.0 | 9.0 | 0.00 | 0.54 | 0.00 | 97 | 1008.0 |
| 20260510002528 | 47 | 160 | 4.0 | 8.0 | 0.00 | 0.54 | 0.00 | 97 | 1008.1 |
| 20260510002052 | 47 | 151 | 5.0 | 9.0 | 0.00 | 0.54 | 0.00 | 97 | 1008.0 |
| 20260510001548 | 47 | 154 | 4.0 | 10.0 | 0.00 | 0.54 | 0.00 | 96 | 1007.8 |
| 20260510001052 | 47 | 112 | 3.0 | 9.0 | 0.00 | 0.54 | 0.00 | 96 | 1007.7 |
| 20260510000547 | 47 | 129 | 4.0 | 9.0 | 0.00 | 0.54 | 0.00 | 96 | 1007.8 |
| 20260510000045 | 47 | 142 | 4.0 | 7.0 | 0.00 | 0.54 | 0.00 | 96 | 1007.7 |
| 20260509235555 | 47 | 152 | 3.0 | 6.0 | 0.00 | 0.54 | 0.54 | 96 | 1007.6 |
| 20260509235030 | 47 | 138 | 4.0 | 6.0 | 0.00 | 0.54 | 0.54 | 96 | 1007.6 |
| 20260509234601 | 47 | 195 | 3.0 | 6.0 | 0.00 | 0.54 | 0.54 | 96 | 1007.7 |
| 20260509234109 | 47 | 156 | 1.0 | 8.0 | 0.00 | 0.54 | 0.54 | 95 | 1007.8 |
| 20260509233544 | 47 | 230 | 3.0 | 8.0 | 0.00 | 0.54 | 0.54 | 95 | 1007.7 |
| 20260509233041 | 48 | 188 | 3.0 | 8.0 | 0.00 | 0.54 | 0.54 | 95 | 1007.7 |
| 20260509232536 | 48 | 208 | 2.0 | 9.0 | 0.00 | 0.54 | 0.54 | 95 | 1007.7 |
| 20260509232140 | 48 | 194 | 4.0 | 12.0 | 0.00 | 0.54 | 0.54 | 95 | 1007.5 |
| 20260509231656 | 48 | 149 | 5.0 | 12.0 | 0.00 | 0.54 | 0.54 | 95 | 1007.4 |
| 20260509231048 | 48 | 147 | 7.0 | 12.0 | 0.00 | 0.54 | 0.54 | 95 | 1007.5 |
| 20260509230543 | 48 | 168 | 6.0 | 12.0 | 0.00 | 0.54 | 0.54 | 95 | 1007.6 |
| 20260509230040 | 48 | 154 | 6.0 | 10.0 | 0.00 | 0.54 | 0.54 | 95 | 1007.6 |
| 20260509225609 | 48 | 153 | 6.0 | 9.0 | 0.00 | 0.54 | 0.54 | 95 | 1007.6 |
| 20260509225054 | 48 | 136 | 5.0 | 9.0 | 0.00 | 0.54 | 0.54 | 95 | 1007.7 |
| 20260509224619 | 48 | 174 | 3.0 | 11.0 | 0.00 | 0.54 | 0.54 | 95 | 1007.8 |
| 20260509224031 | 48 | 173 | 4.0 | 11.0 | 0.00 | 0.54 | 0.54 | 95 | 1007.7 |
| 20260509223641 | 48 | 138 | 2.0 | 11.0 | 0.00 | 0.54 | 0.54 | 95 | 1007.7 |
| 20260509223037 | 48 | 143 | 3.0 | 11.0 | 0.00 | 0.54 | 0.54 | 95 | 1007.6 |
| 20260509222558 | 48 | 156 | 5.0 | 9.0 | 0.00 | 0.54 | 0.54 | 95 | 1007.6 |
| 20260509222036 | 48 | 155 | 3.0 | 9.0 | 0.00 | 0.54 | 0.54 | 95 | 1007.6 |
| 20260509221604 | 48 | 174 | 3.0 | 8.0 | 0.00 | 0.54 | 0.54 | 95 | 1007.7 |
| 20260509221035 | 48 | 157 | 4.0 | 8.0 | 0.00 | 0.54 | 0.54 | 95 | 1007.8 |
| 20260509220605 | 48 | 164 | 4.0 | 7.0 | 0.00 | 0.54 | 0.54 | 94 | 1007.5 |
| 20260509220114 | 48 | 154 | 5.0 | 8.0 | 0.00 | 0.54 | 0.54 | 94 | 1007.6 |
| 20260509215558 | 48 | 178 | 4.0 | 12.0 | 0.00 | 0.54 | 0.54 | 94 | 1007.5 |
| 20260509215107 | 48 | 177 | 5.0 | 12.0 | 0.00 | 0.54 | 0.54 | 94 | 1007.5 |
| 20260509214637 | 48 | 180 | 3.0 | 8.0 | 0.00 | 0.54 | 0.54 | 94 | 1007.6 |
| 20260509214029 | 48 | 172 | 3.0 | 8.0 | 0.00 | 0.54 | 0.54 | 94 | 1007.8 |
| 20260509213550 | 48 | 160 | 3.0 | 8.0 | 0.00 | 0.54 | 0.54 | 94 | 1007.7 |
| 20260509213100 | 48 | 204 | 3.0 | 10.0 | 0.00 | 0.54 | 0.54 | 94 | 1007.8 |
| 20260509212533 | 48 | 255 | 3.0 | 10.0 | 0.00 | 0.54 | 0.54 | 94 | 1007.8 |
| 20260509212027 | 48 | 199 | 3.0 | 12.0 | 0.01 | 0.54 | 0.54 | 95 | 1007.8 |
| 20260509211552 | 48 | 192 | 5.0 | 12.0 | 0.01 | 0.54 | 0.54 | 94 | 1007.9 |
| 20260509211027 | 48 | 211 | 5.0 | 16.0 | 0.01 | 0.54 | 0.54 | 94 | 1008.0 |
| 20260509210552 | 48 | 144 | 5.0 | 11.0 | 0.02 | 0.54 | 0.54 | 94 | 1007.9 |
| 20260509210056 | 48 | 254 | 6.0 | 10.0 | 0.02 | 0.54 | 0.54 | 95 | 1007.9 |
| 20260509205621 | 48 | 147 | 4.0 | 12.0 | 0.03 | 0.54 | 0.54 | 96 | 1008.0 |
| 20260509205033 | 48 | 218 | 5.0 | 10.0 | 0.04 | 0.54 | 0.54 | 96 | 1008.1 |
| 20260509204603 | 48 | 168 | 4.0 | 10.0 | 0.05 | 0.54 | 0.54 | 96 | 1008.3 |
| 20260509204037 | 48 | 224 | 4.0 | 8.0 | 0.05 | 0.54 | 0.54 | 97 | 1008.3 |
| 20260509203607 | 48 | 202 | 3.0 | 14.0 | 0.06 | 0.54 | 0.54 | 97 | 1008.3 |
| 20260509203042 | 47 | 192 | 8.0 | 14.0 | 0.07 | 0.54 | 0.54 | 98 | 1008.4 |
| 20260509202609 | 47 | 214 | 6.0 | 15.0 | 0.08 | 0.54 | 0.54 | 98 | 1008.5 |
| 20260509202043 | 47 | 174 | 5.0 | 14.0 | 0.08 | 0.53 | 0.53 | 98 | 1008.4 |
| 20260509201649 | 47 | 176 | 3.0 | 14.0 | 0.09 | 0.53 | 0.53 | 98 | 1008.6 |
| 20260509201136 | 46 | 198 | 6.0 | 9.0 | 0.10 | 0.53 | 0.53 | 98 | 1008.5 |
| 20260509200528 | 46 | 154 | 4.0 | 9.0 | 0.10 | 0.52 | 0.52 | 98 | 1008.6 |
| 20260509200036 | 46 | 233 | 4.0 | 6.0 | 0.11 | 0.52 | 0.52 | 98 | 1008.7 |
| 20260509195530 | 45 | 160 | 2.0 | 5.0 | 0.10 | 0.51 | 0.51 | 98 | 1008.6 |
| 20260509195053 | 45 | 150 | 3.0 | 6.0 | 0.10 | 0.50 | 0.50 | 98 | 1008.5 |
| 20260509194554 | 45 | 156 | 2.0 | 7.0 | 0.09 | 0.49 | 0.49 | 98 | 1008.7 |
| 20260509194102 | 44 | 129 | 4.0 | 8.0 | 0.09 | 0.49 | 0.49 | 98 | 1008.7 |
| 20260509193538 | 44 | 118 | 3.0 | 8.0 | 0.09 | 0.48 | 0.48 | 98 | 1008.7 |
| 20260509193034 | 44 | 131 | 3.0 | 7.0 | 0.08 | 0.47 | 0.47 | 98 | 1008.7 |
| 20260509192526 | 44 | 127 | 3.0 | 7.0 | 0.07 | 0.46 | 0.46 | 98 | 1008.6 |
| 20260509192049 | 44 | 125 | 2.0 | 7.0 | 0.06 | 0.44 | 0.44 | 98 | 1008.5 |
| 20260509191637 | 44 | 119 | 2.0 | 7.0 | 0.06 | 0.44 | 0.44 | 98 | 1008.6 |
| 20260509191121 | 44 | 144 | 3.0 | 6.0 | 0.05 | 0.43 | 0.43 | 98 | 1008.8 |
| 20260509190534 | 44 | 132 | 2.0 | 4.0 | 0.04 | 0.42 | 0.42 | 98 | 1008.5 |
| 20260509190031 | 44 | 131 | 2.0 | 4.0 | 0.04 | 0.41 | 0.41 | 98 | 1008.6 |
| 20260509185559 | 44 | 94 | 2.0 | 3.0 | 0.04 | 0.41 | 0.41 | 98 | 1008.7 |
| 20260509185033 | 44 | 91 | 2.0 | 4.0 | 0.03 | 0.40 | 0.40 | 98 | 1008.9 |
| 20260509184603 | 43 | 117 | 2.0 | 5.0 | 0.04 | 0.40 | 0.40 | 98 | 1008.8 |
| 20260509184039 | 43 | 119 | 2.0 | 5.0 | 0.04 | 0.40 | 0.40 | 98 | 1008.8 |
| 20260509183610 | 43 | 114 | 1.0 | 4.0 | 0.03 | 0.39 | 0.39 | 98 | 1008.8 |
| 20260509183050 | 43 | 91 | 1.0 | 4.0 | 0.04 | 0.39 | 0.39 | 98 | 1008.8 |
| 20260509182552 | 43 | 129 | 1.0 | 4.0 | 0.04 | 0.39 | 0.39 | 98 | 1008.9 |
| 20260509182027 | 43 | 101 | 2.0 | 6.0 | 0.03 | 0.38 | 0.38 | 98 | 1009.0 |
| 20260509181616 | 43 | 116 | 2.0 | 4.0 | 0.04 | 0.38 | 0.38 | 97 | 1009.0 |
| 20260509181030 | 43 | 101 | 2.0 | 6.0 | 0.04 | 0.38 | 0.38 | 98 | 1009.1 |
| 20260509180525 | 43 | 74 | 2.0 | 4.0 | 0.03 | 0.37 | 0.37 | 97 | 1009.1 |
| 20260509180116 | 42 | 112 | 2.0 | 6.0 | 0.03 | 0.37 | 0.37 | 97 | 1009.1 |
| 20260509175529 | 42 | 109 | 2.0 | 6.0 | 0.04 | 0.37 | 0.37 | 97 | 1009.0 |
| 20260509175115 | 42 | 107 | 3.0 | 7.0 | 0.04 | 0.37 | 0.37 | 97 | 1009.1 |
| 20260509174602 | 42 | 112 | 2.0 | 7.0 | 0.03 | 0.36 | 0.36 | 97 | 1009.1 |
| 20260509174111 | 42 | 85 | 3.0 | 5.0 | 0.04 | 0.36 | 0.36 | 97 | 1009.2 |
| 20260509173552 | 42 | 118 | 1.0 | 7.0 | 0.03 | 0.35 | 0.35 | 97 | 1009.4 |
| 20260509173031 | 42 | 122 | 3.0 | 7.0 | 0.04 | 0.35 | 0.35 | 97 | 1009.3 |
| 20260509172558 | 42 | 112 | 3.0 | 7.0 | 0.04 | 0.35 | 0.35 | 97 | 1009.4 |
| 20260509172042 | 42 | 97 | 3.0 | 7.0 | 0.05 | 0.35 | 0.35 | 97 | 1009.4 |
| 20260509171535 | 42 | 63 | 3.0 | 7.0 | 0.04 | 0.34 | 0.34 | 97 | 1009.5 |
| 20260509171032 | 42 | 105 | 3.0 | 8.0 | 0.04 | 0.34 | 0.34 | 97 | 1009.6 |
| 20260509170651 | 42 | 118 | 3.0 | 8.0 | 0.05 | 0.34 | 0.34 | 97 | 1009.6 |
| 20260509170045 | 42 | 141 | 4.0 | 7.0 | 0.05 | 0.34 | 0.34 | 97 | 1009.7 |
| 20260509165633 | 42 | 103 | 2.0 | 6.0 | 0.05 | 0.33 | 0.33 | 97 | 1009.6 |
| 20260509165046 | 42 | 91 | 2.0 | 6.0 | 0.05 | 0.33 | 0.33 | 97 | 1009.6 |
| 20260509164609 | 42 | 73 | 3.0 | 8.0 | 0.05 | 0.33 | 0.33 | 96 | 1009.7 |
| 20260509164051 | 42 | 104 | 4.0 | 8.0 | 0.05 | 0.32 | 0.32 | 96 | 1009.7 |
| 20260509163545 | 41 | 131 | 1.0 | 5.0 | 0.05 | 0.32 | 0.32 | 96 | 1009.7 |
| 20260509163114 | 41 | 66 | 3.0 | 5.0 | 0.04 | 0.31 | 0.31 | 96 | 1009.6 |
| 20260509162527 | 41 | 89 | 2.0 | 4.0 | 0.05 | 0.31 | 0.31 | 96 | 1009.7 |
| 20260509162052 | 41 | 82 | 3.0 | 4.0 | 0.04 | 0.30 | 0.30 | 96 | 1009.7 |
| 20260509161600 | 41 | 79 | 2.0 | 4.0 | 0.04 | 0.30 | 0.30 | 96 | 1009.8 |
| 20260509161036 | 41 | 97 | 3.0 | 4.0 | 0.05 | 0.30 | 0.30 | 96 | 1009.8 |
| 20260509160556 | 41 | 63 | 1.0 | 6.0 | 0.04 | 0.29 | 0.29 | 96 | 1009.9 |
| 20260509160107 | 41 | 62 | 2.0 | 6.0 | 0.04 | 0.29 | 0.29 | 96 | 1010.0 |
| 20260509155546 | 41 | 43 | 2.0 | 4.0 | 0.04 | 0.28 | 0.28 | 96 | 1010.0 |
| 20260509155041 | 41 | 76 | 2.0 | 4.0 | 0.04 | 0.28 | 0.28 | 96 | 1010.0 |
| 20260509154633 | 41 | 93 | 2.0 | 3.0 | 0.04 | 0.28 | 0.28 | 96 | 1010.1 |
| 20260509154059 | 41 | 93 | 0.0 | 3.0 | 0.03 | 0.27 | 0.27 | 96 | 1010.0 |
| 20260509153608 | 41 | 109 | 1.0 | 3.0 | 0.04 | 0.27 | 0.27 | 96 | 1010.0 |